Weather History for KCDJ - March, 2013

Change the Weather History Date:

Tuesday, March 19, 2013

  Actual Average (KIRK) Record (KIRK)
Temperature  
Mean Temperature 36 °F 42 °F  
Max Temperature 46 °F 53 °F - ()
Min Temperature 27 °F 32 °F - ()
Degree Days  
Heating Degree Days 28 23  
Month to date heating degree days 508  
Since 1 July heating degree days 5041  
Cooling Degree Days 0 0  
Month to date cooling degree days 0  
Year to date cooling degree days 0  
Moisture  
Dew Point 17 °F    
Average Humidity 50    
Maximum Humidity 79    
Minimum Humidity 26    
Precipitation  
Precipitation 0.00 in 0.09 in - ()
Month to date precipitation 1.60  
Year to date precipitation 4.40  
Sea Level Pressure  
Sea Level Pressure 30.21 in    
Wind  
Wind Speed 5 mph (West)    
Max Wind Speed 9 mph    
Max Gust Speed -    
T = Trace of Precipitation, MM = Missing Value Source: NWS Daily Summary

Daily Weather History Graph

Daily Weather History Graph

Search for Another Location

Airport or City:

Trip Planner

Search our weather history database for the weather conditions in past years. The results will help you decide how hot, cold, wet, or windy it might be!

Date:

Astronomy

Mar. 19, 2013 Rise Set
Actual Time 7:18 AM CDT 7:25 PM CDT
Civil Twilight 6:52 AM CDT 7:52 PM CDT
Nautical Twilight 6:20 AM CDT 8:24 PM CDT
Astronomical Twilight 5:48 AM CDT 8:56 PM CDT
Moon 12:10 PM CDT (3/19) 2:12 AM CDT (3/19)
Length of Visible Light 13h 00m
Length of Day
12h 06m
Waxing Crescent, 50% of the Moon is Illuminated
Mar 19
Waxing Crescent
Mar 19
First Quarter
Mar 27
Full
Apr 2
Last Quarter
Apr 10
New

Hourly Weather History & Observations

Time (CDT) Temp. Windchill Dew Point Humidity Pressure Visibility Wind Dir Wind Speed Gust Speed Precip Events Conditions
12:52 AM 27.0 °F 23.0 °F 17.1 °F 66% 30.10 in - NW 3.5 mph - N/A   Unknown
1:52 AM 30.0 °F - 17.1 °F 59% 30.09 in - Calm Calm - N/A   Unknown
2:52 AM 30.0 °F 24.1 °F 17.1 °F 59% 30.12 in - WNW 5.8 mph - N/A   Unknown
3:52 AM 30.9 °F 26.2 °F 16.0 °F 54% 30.12 in - NW 4.6 mph - N/A   Unknown
4:52 AM 30.9 °F 24.3 °F 15.1 °F 52% 30.13 in - NW 6.9 mph - N/A   Unknown
5:52 AM 30.0 °F 24.1 °F 14.0 °F 51% 30.14 in - NNW 5.8 mph - N/A   Unknown
6:52 AM 30.0 °F 21.7 °F 14.0 °F 51% 30.16 in - NW 9.2 mph - N/A   Unknown
7:52 AM 28.9 °F 22.8 °F 14.0 °F 54% 30.20 in - NW 5.8 mph - N/A   Unknown
8:52 AM 30.0 °F 23.2 °F 15.1 °F 54% 30.23 in - NNW 6.9 mph - N/A   Unknown
9:52 AM 32.0 °F 27.5 °F 14.0 °F 48% 30.26 in - NW 4.6 mph - N/A   Unknown
10:52 AM 34.0 °F - 12.9 °F 42% 30.28 in - Calm Calm - N/A   Unknown
11:52 AM 36.0 °F - 12.0 °F 37% 30.28 in - Calm Calm - N/A   Unknown
12:52 PM 37.9 °F 32.7 °F 16.0 °F 41% 30.27 in - SSW 6.9 mph - N/A   Unknown
1:52 PM 39.9 °F 37.8 °F 15.1 °F 36% 30.27 in - Variable 3.5 mph - N/A   Unknown
2:52 PM 41.0 °F 35.2 °F 14.0 °F 33% 30.25 in - WSW 9.2 mph - N/A   Unknown
3:52 PM 43.0 °F 38.2 °F 14.0 °F 31% 30.24 in - WSW 8.1 mph - N/A   Unknown
4:52 PM 45.0 °F 40.1 °F 12.9 °F 27% 30.23 in - West 9.2 mph - N/A   Unknown
5:52 PM 46.0 °F 42.5 °F 12.9 °F 26% 30.23 in - Variable 6.9 mph - N/A   Unknown
6:52 PM 44.1 °F 40.8 °F 16.0 °F 32% 30.23 in - SW 5.8 mph - N/A   Unknown
7:52 PM 39.0 °F 35.7 °F 19.0 °F 45% 30.24 in - WSW 4.6 mph - N/A   Unknown
8:52 PM 37.0 °F 33.3 °F 28.0 °F 70% 30.25 in - WSW 4.6 mph - N/A   Unknown
9:52 PM 36.0 °F 32.1 °F 28.0 °F 73% 30.26 in - Variable 4.6 mph - N/A   Unknown
10:52 PM 36.0 °F 30.3 °F 30.0 °F 79% 30.26 in - SW 6.9 mph - N/A   Unknown
11:52 PM 37.0 °F 33.3 °F 30.9 °F 79% 30.26 in - West 4.6 mph - N/A   Unknown